This is the latest recevied weather packets stored in our database for station/object N5GMJ. If no packets are shown the sender has not sent any weather packets the latest 10 day(s).
| Time | Temp. | Humidity | Pressure | Rain* | Wind** | Luminosity | Snow |
|---|---|---|---|---|---|---|---|
| 1777151229 | 30.56° C | 60% | 1005.7 hPa | 0 mm | - | - | - |
| 1777150924 | 31.11° C | 61% | 1005.6 hPa | 0 mm | - | - | - |
| 1777150619 | 31.11° C | 62% | 1005.7 hPa | 0 mm | - | - | - |
| 1777150314 | 30.56° C | 60% | 1005.8 hPa | 0 mm | - | - | - |
| 1777150013 | 31.11° C | 60% | 1005.7 hPa | 0 mm | - | - | - |
| 1777149708 | 30.56° C | 61% | 1005.9 hPa | 0 mm | - | - | - |
| 1777149405 | 31.11° C | 62% | 1006.1 hPa | 0 mm | - | - | - |
| 1777149101 | 31.11° C | 59% | 1005.8 hPa | 0 mm | - | - | - |
| 1777148801 | 31.11° C | 61% | 1005.8 hPa | 0 mm | - | - | - |
| 1777148498 | 31.11° C | 60% | 1005.9 hPa | 0 mm | - | - | - |
| 1777148194 | 30.56° C | 60% | 1006.1 hPa | 0 mm | - | - | - |
| 1777147890 | 30.56° C | 62% | 1006.1 hPa | 0 mm | - | - | - |
| 1777147587 | 30.56° C | 65% | 1006.2 hPa | 0 mm | - | - | - |
| 1777147281 | 31.11° C | 61% | 1006.2 hPa | 0 mm | - | - | - |
| 1777146977 | 31.11° C | 62% | 1006.4 hPa | 0 mm | - | - | - |
| 1777146674 | 30° C | 63% | 1006.2 hPa | 0 mm | - | - | - |
| 1777146369 | 30.56° C | 63% | 1006.4 hPa | 0 mm | - | - | - |
| 1777146066 | 29.44° C | 65% | 1006.5 hPa | 0 mm | - | - | - |
| 1777145762 | 30.56° C | 65% | 1006.4 hPa | 0 mm | - | - | - |
| 1777145458 | 31.11° C | 63% | 1006.6 hPa | 0 mm | - | - | - |
| 1777145153 | 30.56° C | 65% | 1006.6 hPa | 0 mm | - | - | - |
| 1777144849 | 30° C | 68% | 1006.5 hPa | 0 mm | - | - | - |
| 1777144547 | 30.56° C | 64% | 1006.6 hPa | 0 mm | - | - | - |
| 1777144244 | 30.56° C | 67% | 1006.7 hPa | 0 mm | - | - | - |
| 1777143940 | 30° C | 64% | 1006.6 hPa | 0 mm | - | - | - |
* Rain latest hour (hover to see other rain measurements)
** Current wind speed in m/s (hover to see current wind gust speed)